Starlink 32143

operational
NORAD ID: 60296 Int'l Des: 2024-132 Owner: SPXS Country: US Constellation: starlink
LEOCIRCULAR

About Starlink 32143

Description loading...

Live Position

Loading 3D Globe...

Upcoming Passes

Altitude History

Altitude vs Time

uPlot chart will show altitude changes over time

Two-Line Element Set

1 60296U 24132U 25306.23791093 .00001032 00000-0 47005-4 0 9991
2 60296 53.1618 284.6699 0002310 96.1179 264.0086 15.30194635 72048
Epoch: Nov 2, 2025 • Age: 38 hours

Current Status

Altitude 475.4 km
Velocity 7.63 km/s
Sub-Earth Point 21.12°N, 40.92°W
Launch Date Jul 28, 2024
Age 1.2 years
Type internet

Technical Details

Classification Payload
Mass 730.00 kg
Dry Mass 700.00 kg
Total Mass 730.00 kg
Length 0.30 m
Diameter 4.10 m
Span 29.00 m
Shape Box + pan
Manufacturer SPXS
Bus Type Starlink V2M
Phase Status In Orbit
Owner/State SPXS/US

Large Constellations

Loading constellations...